START_TIME,STEP,MOV.,M6,t_acc.,M7,t_acc.,M19,t_acc.,H36,t_acc.
1979-07-17 12:00:27.100 ,0,0,0.,12.0,0.,12.0,0.,12.0,0.,12.0
1979-07-17 12:00:39.100 ,0,0,0.,12.0,0.,12.0,0.,12.0,0.,12.0
1979-07-17 12:00:51.100 ,1,1,0.,12.0,0.,12.0,0.,12.0,0.,12.0
1979-07-17 12:01:03.100 ,1,1,0.,12.0,0.,12.0,0.,12.0,0.,12.0
1979-07-17 12:01:15.100 ,1,0,0.,12.0,0.,12.0,0.,12.0,0.,12.0
1979-07-17 12:01:27.100 ,1,0,0.,12.0,0.,12.0,0.,12.0,1.,12.0
1979-07-17 12:01:39.100 ,2,1,0.,12.0,0.,12.0,0.,12.0,0.,12.0
1979-07-17 12:01:51.100 ,2,1,0.,12.0,0.,12.0,0.,12.0,0.,12.0
1979-07-17 12:02:03.100 ,2,0,0.,12.0,0.,12.0,0.,12.0,0.,12.0
1979-07-17 12:02:15.100 ,2,0,1.,12.0,0.,12.0,0.,12.0,0.,12.0
1979-07-17 12:02:27.100 ,3,1,1.,12.0,0.,12.0,0.,12.0,0.,12.0
1979-07-17 12:02:39.100 ,3,1,0.,12.0,0.,12.0,0.,12.0,0.,12.0
1979-07-17 12:02:51.100 ,3,0,0.,12.0,0.,12.0,0.,12.0,0.,12.0
1979-07-17 12:03:03.100 ,3,0,0.,12.0,0.,12.0,0.,12.0,0.,12.0
1979-07-17 12:03:15.100 ,4,1,0.,12.0,0.,12.0,0.,12.0,0.,12.0
1979-07-17 12:03:27.100 ,4,1,0.,12.0,0.,12.0,0.,12.0,0.,12.0
1979-07-17 12:03:39.100 ,4,0,0.,12.0,0.,12.0,0.,12.0,0.,12.0
1979-07-17 12:03:51.100 ,4,0,0.,12.0,0.,12.0,0.,12.0,0.,12.0
1979-07-17 12:04:03.100 ,5,1,0.,12.0,0.,12.0,0.,12.0,0.,12.0
1979-07-17 12:04:15.100 ,5,1,0.,12.0,0.,12.0,0.,12.0,0.,12.0
1979-07-17 12:04:27.100 ,5,0,0.,12.0,0.,12.0,0.,12.0,0.,12.0
1979-07-17 12:04:39.100 ,5,0,0.,12.0,0.,12.0,0.,12.0,0.,12.0
1979-07-17 12:04:51.100 ,6,1,0.,12.0,0.,12.0,0.,12.0,0.,12.0
1979-07-17 12:05:03.100 ,6,1,0.,12.0,0.,12.0,0.,12.0,0.,12.0
1979-07-17 12:05:15.100 ,6,0,1.,12.0,0.,12.0,0.,12.0,0.,12.0
1979-07-17 12:05:27.100 ,6,0,0.,12.0,0.,12.0,0.,12.0,0.,12.0
1979-07-17 12:05:39.100 ,7,1,0.,12.0,0.,12.0,0.,12.0,0.,12.0
1979-07-17 12:05:51.100 ,7,1,0.,12.0,0.,12.0,0.,12.0,0.,12.0
1979-07-17 12:06:03.100 ,7,0,0.,12.0,0.,12.0,0.,12.0,0.,12.0
1979-07-17 12:06:15.100 ,7,0,0.,12.0,0.,12.0,0.,12.0,0.,12.0
1979-07-17 12:06:27.100 ,7,1,0.,12.0,0.,12.0,0.,12.0,0.,12.0
1979-07-17 12:06:39.100 ,7,1,0.,12.0,0.,12.0,0.,12.0,0.,12.0
1979-07-17 12:06:51.100 ,7,0,0.,12.0,0.,12.0,0.,12.0,0.,12.0
1979-07-17 12:07:03.100 ,7,0,0.,12.0,0.,12.0,0.,12.0,0.,12.0
1979-07-17 12:07:15.100 ,6,1,0.,12.0,0.,12.0,0.,12.0,0.,12.0
1979-07-17 12:07:27.100 ,6,1,0.,12.0,0.,12.0,0.,12.0,0.,12.0
1979-07-17 12:07:39.100 ,6,0,0.,12.0,0.,12.0,0.,12.0,0.,12.0
1979-07-17 12:07:51.100 ,6,0,0.,12.0,0.,12.0,0.,12.0,0.,12.0
1979-07-17 12:08:03.100 ,5,1,0.,12.0,0.,12.0,0.,12.0,0.,12.0
1979-07-17 12:08:15.100 ,5,1,0.,12.0,0.,12.0,0.,12.0,0.,12.0
1979-07-17 12:08:27.100 ,5,0,0.,12.0,0.,12.0,0.,12.0,0.,12.0
1979-07-17 12:08:39.100 ,5,0,0.,12.0,0.,12.0,0.,12.0,0.,12.0
1979-07-17 12:08:51.100 ,4,1,0.,12.0,0.,12.0,0.,12.0,0.,12.0
1979-07-17 12:09:03.100 ,4,1,0.,12.0,0.,12.0,0.,12.0,0.,12.0
1979-07-17 12:09:15.100 ,4,0,0.,12.0,0.,12.0,0.,12.0,1.,12.0
1979-07-17 12:09:27.100 ,4,0,0.,12.0,0.,12.0,0.,12.0,0.,12.0
1979-07-17 12:09:39.100 ,3,1,0.,12.0,0.,12.0,0.,12.0,0.,12.0
1979-07-17 12:09:51.100 ,3,1,0.,12.0,0.,12.0,0.,12.0,0.,12.0
1979-07-17 12:10:03.100 ,3,0,0.,12.0,0.,12.0,0.,12.0,0.,12.0
1979-07-17 12:10:15.100 ,3,0,0.,12.0,0.,12.0,0.,12.0,0.,12.0
1979-07-17 12:10:27.100 ,2,1,0.,12.0,0.,12.0,0.,12.0,0.,12.0
1979-07-17 12:10:39.100 ,2,1,0.,12.0,0.,12.0,0.,12.0,0.,12.0
1979-07-17 12:10:51.100 ,2,0,1.,12.0,0.,12.0,0.,12.0,0.,12.0
1979-07-17 12:11:03.100 ,2,0,0.,12.0,0.,12.0,0.,12.0,0.,12.0
1979-07-17 12:11:15.100 ,1,1,0.,12.0,0.,12.0,0.,12.0,0.,12.0
1979-07-17 12:11:27.100 ,1,1,0.,12.0,0.,12.0,0.,12.0,0.,12.0
1979-07-17 12:11:39.100 ,0,0,0.,12.0,0.,12.0,0.,12.0,0.,12.0
1979-07-17 12:11:51.100 ,0,0,1.,12.0,0.,12.0,0.,12.0,0.,12.0
1979-07-17 12:11:39.100 ,1,0,0.,12.0,0.,12.0,0.,12.0,0.,12.0
1979-07-17 12:11:51.100 ,1,0,1.,12.0,0.,12.0,0.,12.0,0.,12.0
1979-07-17 12:12:03.100 ,0,1,0.,12.0,0.,12.0,0.,12.0,0.,12.0
1979-07-17 12:12:15.100 ,0,1,0.,12.0,0.,12.0,0.,12.0,0.,12.0
1979-07-17 12:12:27.100 ,0,0,0.,12.0,0.,12.0,0.,12.0,0.,12.0
1979-07-17 12:12:39.100 ,0,0,0.,12.0,0.,12.0,0.,12.0,0.,12.0
1979-07-17 12:12:51.100 ,0,1,0.,12.0,0.,12.0,0.,12.0,0.,12.0
1979-07-17 12:13:03.100 ,0,1,0.,12.0,0.,12.0,0.,12.0,0.,12.0
1979-07-17 12:13:15.100 ,0,0,0.,12.0,0.,12.0,0.,12.0,0.,12.0
1979-07-17 12:13:27.100 ,0,0,0.,12.0,0.,12.0,0.,12.0,0.,12.0
1979-07-17 12:13:39.100 ,1,1,0.,12.0,0.,12.0,0.,12.0,0.,12.0
1979-07-17 12:13:51.100 ,1,1,0.,12.0,0.,12.0,0.,12.0,0.,12.0
1979-07-17 12:14:03.100 ,1,0,0.,12.0,0.,12.0,0.,12.0,0.,12.0
1979-07-17 12:14:15.100 ,1,0,0.,12.0,0.,12.0,0.,12.0,0.,12.0
1979-07-17 12:14:27.100 ,2,1,1.,12.0,0.,12.0,0.,12.0,0.,12.0
1979-07-17 12:14:39.100 ,2,1,0.,12.0,0.,12.0,0.,12.0,0.,12.0
1979-07-17 12:14:51.100 ,2,0,0.,12.0,0.,12.0,0.,12.0,0.,12.0
1979-07-17 12:15:03.100 ,2,0,0.,12.0,0.,12.0,0.,12.0,0.,12.0
1979-07-17 12:15:15.100 ,3,1,0.,12.0,0.,12.0,0.,12.0,0.,12.0
1979-07-17 12:15:27.100 ,3,1,0.,12.0,0.,12.0,0.,12.0,0.,12.0
1979-07-17 12:15:39.100 ,3,0,0.,12.0,0.,12.0,0.,12.0,0.,12.0
1979-07-17 12:15:51.100 ,3,0,0.,12.0,0.,12.0,0.,12.0,0.,12.0
1979-07-17 12:16:03.100 ,4,1,0.,12.0,0.,12.0,0.,12.0,0.,12.0
1979-07-17 12:16:15.100 ,4,1,0.,12.0,0.,12.0,0.,12.0,0.,12.0
1979-07-17 12:16:27.100 ,4,0,0.,12.0,0.,12.0,0.,12.0,0.,12.0
1979-07-17 12:16:39.100 ,4,0,0.,12.0,0.,12.0,0.,12.0,0.,12.0
1979-07-17 12:16:51.100 ,5,1,0.,12.0,0.,12.0,0.,12.0,0.,12.0
1979-07-17 12:17:03.100 ,5,1,0.,12.0,0.,12.0,0.,12.0,0.,12.0
1979-07-17 12:17:15.100 ,5,0,0.,12.0,0.,12.0,0.,12.0,0.,12.0
1979-07-17 12:17:27.100 ,5,0,0.,12.0,0.,12.0,0.,12.0,0.,12.0
1979-07-17 12:17:39.100 ,6,1,0.,12.0,0.,12.0,0.,12.0,0.,12.0
1979-07-17 12:17:51.100 ,6,1,0.,12.0,0.,12.0,0.,12.0,0.,12.0
1979-07-17 12:18:03.100 ,6,0,0.,12.0,0.,12.0,0.,12.0,0.,12.0
1979-07-17 12:18:15.100 ,6,0,0.,12.0,0.,12.0,0.,12.0,0.,12.0
1979-07-17 12:18:27.100 ,7,0,0.,12.0,0.,12.0,0.,12.0,0.,12.0
1979-07-17 12:18:39.100 ,7,0,0.,12.0,0.,12.0,0.,12.0,0.,12.0
1979-07-17 12:18:51.100 ,7,0,0.,12.0,0.,12.0,0.,12.0,0.,12.0
1979-07-17 12:19:03.100 ,7,0,0.,12.0,0.,12.0,0.,12.0,0.,12.0
1979-07-17 12:19:15.100 ,4,1,0.,12.0,0.,12.0,0.,12.0,0.,12.0
1979-07-17 12:19:27.100 ,4,1,0.,12.0,0.,12.0,0.,12.0,0.,12.0
1979-07-17 12:19:39.100 ,0,1,0.,12.0,0.,12.0,0.,12.0,0.,12.0
1979-07-17 12:19:51.100 ,0,1,0.,12.0,0.,12.0,0.,12.0,0.,12.0
1979-07-17 12:20:03.100 ,3,1,0.,12.0,0.,12.0,0.,12.0,0.,12.0
1979-07-17 12:20:15.100 ,3,1,0.,12.0,0.,12.0,0.,12.0,0.,12.0
1979-07-17 12:20:27.100 ,7,1,0.,12.0,0.,12.0,0.,12.0,0.,12.0
1979-07-17 12:20:39.100 ,7,1,0.,12.0,0.,12.0,0.,12.0,0.,12.0
1979-07-17 12:20:51.100 ,4,1,0.,12.0,0.,12.0,0.,12.0,0.,12.0
1979-07-17 12:21:03.100 ,4,1,0.,12.0,0.,12.0,0.,12.0,0.,12.0
1979-07-17 12:21:15.100 ,0,1,0.,12.0,0.,12.0,0.,12.0,0.,12.0
1979-07-17 12:21:27.100 ,0,1,0.,12.0,0.,12.0,0.,12.0,0.,12.0
1979-07-17 12:21:39.100 ,0,0,0.,12.0,0.,12.0,0.,12.0,0.,12.0
1979-07-17 12:21:51.100 ,0,0,0.,12.0,0.,12.0,0.,12.0,0.,12.0
1979-07-17 12:22:03.100 ,7,1,1.,12.0,0.,12.0,0.,12.0,0.,12.0
1979-07-17 12:22:15.100 ,7,1,0.,12.0,0.,12.0,0.,12.0,0.,12.0
1979-07-17 12:22:27.100 ,4,1,0.,12.0,0.,12.0,0.,12.0,0.,12.0
1979-07-17 12:22:39.100 ,4,1,0.,12.0,0.,12.0,0.,12.0,0.,12.0
1979-07-17 12:22:51.100 ,0,1,0.,12.0,0.,12.0,0.,12.0,0.,12.0
1979-07-17 12:23:03.100 ,0,1,0.,12.0,0.,12.0,0.,12.0,0.,12.0
1979-07-17 12:23:15.100 ,3,1,0.,12.0,0.,12.0,0.,12.0,0.,12.0
1979-07-17 12:23:27.100 ,3,1,0.,12.0,0.,12.0,0.,12.0,0.,12.0
1979-07-17 12:23:39.100 ,7,1,0.,12.0,0.,12.0,0.,12.0,0.,12.0
1979-07-17 12:23:51.100 ,7,1,0.,12.0,0.,12.0,0.,12.0,0.,12.0
1979-07-17 12:24:03.100 ,4,1,0.,12.0,0.,12.0,0.,12.0,0.,12.0
1979-07-17 12:24:15.100 ,4,1,0.,12.0,0.,12.0,0.,12.0,0.,12.0
1979-07-17 12:24:27.100 ,0,1,0.,12.0,0.,12.0,0.,12.0,0.,12.0
1979-07-17 12:24:39.100 ,0,1,0.,12.0,0.,12.0,0.,12.0,0.,12.0
1979-07-17 12:24:51.100 ,3,1,0.,12.0,0.,12.0,0.,12.0,0.,12.0
1979-07-17 12:25:03.100 ,3,1,0.,12.0,0.,12.0,0.,12.0,0.,12.0
1979-07-17 12:25:15.100 ,7,1,0.,12.0,0.,12.0,0.,12.0,0.,12.0
1979-07-17 12:25:27.100 ,7,1,0.,12.0,0.,12.0,0.,12.0,0.,12.0
1979-07-17 12:25:39.100 ,4,1,0.,12.0,0.,12.0,0.,12.0,0.,12.0
1979-07-17 12:25:51.100 ,4,1,0.,12.0,0.,12.0,0.,12.0,0.,12.0
1979-07-17 12:26:03.100 ,0,1,0.,12.0,0.,12.0,0.,12.0,0.,12.0
1979-07-17 12:26:15.100 ,0,1,0.,12.0,0.,12.0,0.,12.0,0.,12.0
1979-07-17 12:26:27.100 ,3,1,0.,12.0,0.,12.0,0.,12.0,0.,12.0
1979-07-17 12:26:39.100 ,3,1,1.,12.0,0.,12.0,0.,12.0,0.,12.0
1979-07-17 12:26:51.100 ,7,1,0.,12.0,0.,12.0,0.,12.0,0.,12.0
1979-07-17 12:27:03.100 ,7,1,0.,12.0,0.,12.0,0.,12.0,0.,12.0
1979-07-17 12:27:15.100 ,4,1,0.,12.0,0.,12.0,0.,12.0,0.,12.0
1979-07-17 12:27:27.100 ,4,1,0.,12.0,0.,12.0,0.,12.0,0.,12.0
1979-07-17 12:27:39.100 ,0,1,0.,12.0,0.,12.0,0.,12.0,0.,12.0
1979-07-17 12:27:51.100 ,0,1,0.,12.0,0.,12.0,0.,12.0,0.,12.0
1979-07-17 12:28:03.100 ,3,1,0.,12.0,0.,12.0,0.,12.0,0.,12.0
1979-07-17 12:28:15.100 ,3,1,0.,12.0,0.,12.0,0.,12.0,0.,12.0
1979-07-17 12:28:27.100 ,7,1,0.,12.0,0.,12.0,0.,12.0,0.,12.0
1979-07-17 12:28:39.100 ,7,1,0.,12.0,0.,12.0,0.,12.0,0.,12.0
1979-07-17 12:28:51.090 ,4,1,0.,12.0,0.,12.0,0.,12.0,0.,12.0
1979-07-17 12:29:03.090 ,4,1,0.,12.0,0.,12.0,0.,12.0,0.,12.0
1979-07-17 12:29:15.090 ,0,1,0.,12.0,0.,12.0,0.,12.0,0.,12.0
1979-07-17 12:29:27.090 ,0,1,0.,12.0,0.,12.0,0.,12.0,0.,12.0
1979-07-17 12:29:39.090 ,0,0,0.,12.0,0.,12.0,0.,12.0,0.,12.0
1979-07-17 12:29:51.090 ,0,0,0.,12.0,0.,12.0,0.,12.0,0.,12.0
1979-07-17 12:30:03.090 ,0,0,0.,12.0,0.,12.0,0.,12.0,0.,12.0
1979-07-17 12:30:15.090 ,0,0,0.,12.0,0.,12.0,0.,12.0,0.,12.0
1979-07-17 12:30:27.090 ,5,1,0.,12.0,0.,12.0,0.,12.0,0.,12.0
1979-07-17 12:30:39.090 ,5,1,1.,12.0,0.,12.0,0.,12.0,0.,12.0
1979-07-17 12:30:51.090 ,5,0,0.,12.0,0.,12.0,0.,12.0,0.,12.0
1979-07-17 12:31:03.090 ,5,0,1.,12.0,0.,12.0,0.,12.0,0.,12.0
1979-07-17 12:31:15.090 ,4,1,0.,12.0,0.,12.0,0.,12.0,0.,12.0
1979-07-17 12:31:27.090 ,4,1,0.,12.0,0.,12.0,0.,12.0,0.,12.0
1979-07-17 12:31:39.090 ,4,0,0.,12.0,0.,12.0,0.,12.0,0.,12.0
1979-07-17 12:31:51.090 ,4,0,0.,12.0,0.,12.0,0.,12.0,0.,12.0
1979-07-17 12:32:03.090 ,3,1,0.,12.0,0.,12.0,0.,12.0,0.,12.0
1979-07-17 12:32:15.090 ,3,1,0.,12.0,0.,12.0,0.,12.0,0.,12.0
1979-07-17 12:32:27.090 ,3,0,1.,12.0,0.,12.0,0.,12.0,0.,12.0
1979-07-17 12:32:39.090 ,3,0,0.,12.0,0.,12.0,0.,12.0,0.,12.0
1979-07-17 12:32:51.090 ,2,1,0.,12.0,0.,12.0,0.,12.0,0.,12.0
1979-07-17 12:33:03.090 ,2,1,0.,12.0,0.,12.0,0.,12.0,0.,12.0
1979-07-17 12:33:15.090 ,2,0,0.,12.0,0.,12.0,0.,12.0,0.,12.0
1979-07-17 12:33:27.090 ,2,0,0.,12.0,0.,12.0,0.,12.0,0.,12.0
1979-07-17 12:33:39.090 ,1,1,0.,12.0,0.,12.0,0.,12.0,0.,12.0
1979-07-17 12:33:51.090 ,1,1,0.,12.0,0.,12.0,0.,12.0,0.,12.0
1979-07-17 12:34:03.090 ,1,0,0.,12.0,0.,12.0,0.,12.0,0.,12.0
1979-07-17 12:34:15.090 ,1,0,0.,12.0,1.,12.0,0.,12.0,0.,12.0
1979-07-17 12:34:27.100 ,0,1,0.,12.0,0.,12.0,0.,12.0,0.,12.0
1979-07-17 12:34:39.100 ,0,1,0.,12.0,0.,12.0,0.,12.0,0.,12.0
1979-07-17 12:34:51.100 ,0,0,0.,12.0,0.,12.0,0.,12.0,0.,12.0
1979-07-17 12:35:03.100 ,0,0,0.,12.0,0.,12.0,0.,12.0,0.,12.0
1979-07-17 12:35:15.100 ,0,1,0.,12.0,0.,12.0,0.,12.0,0.,12.0
1979-07-17 12:35:27.100 ,0,1,0.,12.0,0.,12.0,0.,12.0,0.,12.0
1979-07-17 12:35:39.100 ,0,0,0.,12.0,0.,12.0,0.,12.0,0.,12.0
1979-07-17 12:35:51.100 ,0,0,0.,12.0,0.,12.0,0.,12.0,0.,12.0
1979-07-17 12:36:03.100 ,1,1,0.,12.0,0.,12.0,0.,12.0,0.,12.0
1979-07-17 12:36:15.100 ,1,1,0.,12.0,0.,12.0,0.,12.0,0.,12.0
1979-07-17 12:36:27.100 ,1,0,0.,12.0,0.,12.0,0.,12.0,0.,12.0
1979-07-17 12:36:39.100 ,1,0,0.,12.0,0.,12.0,0.,12.0,0.,12.0
1979-07-17 12:36:51.100 ,2,1,0.,12.0,0.,12.0,0.,12.0,0.,12.0
1979-07-17 12:37:03.100 ,2,1,0.,12.0,0.,12.0,0.,12.0,0.,12.0
1979-07-17 12:37:15.100 ,2,0,0.,12.0,0.,12.0,0.,12.0,0.,12.0
1979-07-17 12:37:27.100 ,2,0,0.,12.0,0.,12.0,0.,12.0,0.,12.0
1979-07-17 12:37:39.100 ,3,1,0.,12.0,0.,12.0,0.,12.0,0.,12.0
1979-07-17 12:37:51.100 ,3,1,0.,12.0,0.,12.0,0.,12.0,0.,12.0
1979-07-17 12:38:03.100 ,3,0,0.,12.0,0.,12.0,0.,12.0,0.,12.0
1979-07-17 12:38:15.100 ,3,0,0.,12.0,0.,12.0,0.,12.0,0.,12.0
1979-07-17 12:38:27.100 ,4,1,0.,12.0,0.,12.0,0.,12.0,0.,12.0
1979-07-17 12:38:39.100 ,4,1,0.,12.0,0.,12.0,0.,12.0,0.,12.0
1979-07-17 12:38:51.100 ,4,0,0.,12.0,0.,12.0,0.,12.0,0.,12.0
1979-07-17 12:39:03.100 ,4,0,1.,12.0,0.,12.0,0.,12.0,0.,12.0
1979-07-17 12:39:15.100 ,5,1,0.,12.0,0.,12.0,0.,12.0,0.,12.0
1979-07-17 12:39:27.100 ,5,1,0.,12.0,0.,12.0,0.,12.0,0.,12.0
1979-07-17 12:39:39.100 ,5,0,0.,12.0,0.,12.0,0.,12.0,0.,12.0
1979-07-17 12:39:51.100 ,5,0,0.,12.0,0.,12.0,0.,12.0,0.,12.0
1979-07-17 12:40:03.100 ,6,1,0.,12.0,0.,12.0,0.,12.0,0.,12.0
1979-07-17 12:40:15.100 ,6,1,1.,12.0,0.,12.0,0.,12.0,0.,12.0
1979-07-17 12:40:27.100 ,6,0,0.,12.0,0.,12.0,0.,12.0,0.,12.0
1979-07-17 12:40:39.100 ,6,0,0.,12.0,0.,12.0,0.,12.0,0.,12.0
1979-07-17 12:40:51.100 ,7,1,0.,12.0,0.,12.0,0.,12.0,0.,12.0
1979-07-17 12:41:03.100 ,7,1,0.,12.0,0.,12.0,0.,12.0,0.,12.0
1979-07-17 12:41:15.100 ,7,0,0.,12.0,0.,12.0,0.,12.0,0.,12.0
1979-07-17 12:41:27.100 ,7,0,0.,12.0,0.,12.0,0.,12.0,0.,12.0
1979-07-17 12:41:39.100 ,7,1,0.,12.0,0.,12.0,0.,12.0,0.,12.0
1979-07-17 12:41:51.100 ,7,1,0.,12.0,0.,12.0,0.,12.0,0.,12.0
1979-07-17 12:42:03.100 ,7,0,0.,12.0,0.,12.0,0.,12.0,0.,12.0
1979-07-17 12:42:15.100 ,7,0,0.,12.0,0.,12.0,0.,12.0,0.,12.0
1979-07-17 12:42:27.100 ,6,1,0.,12.0,0.,12.0,0.,12.0,0.,12.0
1979-07-17 12:42:39.100 ,6,1,0.,12.0,0.,12.0,0.,12.0,0.,12.0
1979-07-17 12:42:51.100 ,6,0,0.,12.0,0.,12.0,0.,12.0,0.,12.0
1979-07-17 12:43:03.100 ,6,0,0.,12.0,0.,12.0,0.,12.0,0.,12.0
1979-07-17 12:43:15.100 ,5,1,0.,12.0,0.,12.0,0.,12.0,0.,12.0
1979-07-17 12:43:27.100 ,5,1,0.,12.0,0.,12.0,0.,12.0,0.,12.0
1979-07-17 12:43:39.100 ,5,0,0.,12.0,0.,12.0,0.,12.0,0.,12.0
1979-07-17 12:43:51.100 ,5,0,0.,12.0,0.,12.0,0.,12.0,0.,12.0
1979-07-17 12:44:03.100 ,4,1,0.,12.0,0.,12.0,0.,12.0,0.,12.0
1979-07-17 12:44:15.100 ,4,1,0.,12.0,0.,12.0,0.,12.0,0.,12.0
1979-07-17 12:44:27.100 ,4,0,0.,12.0,0.,12.0,0.,12.0,0.,12.0
1979-07-17 12:44:39.100 ,4,0,0.,12.0,0.,12.0,0.,12.0,0.,12.0
1979-07-17 12:44:51.100 ,3,1,0.,12.0,0.,12.0,0.,12.0,0.,12.0
1979-07-17 12:45:03.100 ,3,1,1.,12.0,0.,12.0,0.,12.0,0.,12.0
1979-07-17 12:45:15.100 ,3,0,0.,12.0,0.,12.0,0.,12.0,0.,12.0
1979-07-17 12:45:27.100 ,3,0,0.,12.0,0.,12.0,0.,12.0,0.,12.0
1979-07-17 12:45:39.100 ,2,1,0.,12.0,0.,12.0,0.,12.0,0.,12.0
1979-07-17 12:45:51.100 ,2,1,0.,12.0,0.,12.0,0.,12.0,0.,12.0
1979-07-17 12:46:03.100 ,2,0,0.,12.0,0.,12.0,0.,12.0,0.,12.0
1979-07-17 12:46:15.100 ,2,0,0.,12.0,0.,12.0,0.,12.0,0.,12.0
1979-07-17 12:46:27.100 ,1,1,0.,12.0,0.,12.0,0.,12.0,0.,12.0
1979-07-17 12:46:39.100 ,1,1,0.,12.0,0.,12.0,0.,12.0,0.,12.0
1979-07-17 12:46:51.100 ,1,0,0.,12.0,0.,12.0,0.,12.0,0.,12.0
1979-07-17 12:47:03.100 ,1,0,0.,12.0,0.,12.0,0.,12.0,0.,12.0
1979-07-17 12:47:15.100 ,0,1,0.,12.0,0.,12.0,0.,12.0,0.,12.0
1979-07-17 12:47:27.100 ,0,1,0.,12.0,0.,12.0,0.,12.0,0.,12.0
1979-07-17 12:47:39.100 ,0,0,0.,12.0,0.,12.0,0.,12.0,0.,12.0
1979-07-17 12:47:51.100 ,0,0,0.,12.0,0.,12.0,0.,12.0,0.,12.0
1979-07-17 12:48:03.090 ,0,1,0.,12.0,0.,12.0,0.,12.0,0.,12.0
1979-07-17 12:48:15.090 ,0,1,0.,12.0,0.,12.0,0.,12.0,0.,12.0
1979-07-17 12:48:27.090 ,0,0,0.,12.0,0.,12.0,0.,12.0,0.,12.0
1979-07-17 12:48:39.090 ,0,0,0.,12.0,0.,12.0,0.,12.0,0.,12.0
1979-07-17 12:48:51.090 ,1,1,0.,12.0,0.,12.0,0.,12.0,0.,12.0
1979-07-17 12:49:03.090 ,1,1,0.,12.0,0.,12.0,0.,12.0,0.,12.0
1979-07-17 12:49:15.090 ,1,0,0.,12.0,0.,12.0,0.,12.0,0.,12.0
1979-07-17 12:49:27.090 ,1,0,0.,12.0,0.,12.0,0.,12.0,0.,12.0
1979-07-17 12:49:39.090 ,2,1,0.,12.0,0.,12.0,0.,12.0,0.,12.0
1979-07-17 12:49:51.090 ,2,1,0.,12.0,0.,12.0,0.,12.0,0.,12.0
1979-07-17 12:50:03.090 ,2,0,0.,12.0,0.,12.0,0.,12.0,0.,12.0
1979-07-17 12:50:15.090 ,2,0,0.,12.0,0.,12.0,0.,12.0,0.,12.0
1979-07-17 12:50:27.090 ,3,1,0.,12.0,0.,12.0,0.,12.0,0.,12.0
1979-07-17 12:50:39.090 ,3,1,0.,12.0,0.,12.0,0.,12.0,0.,12.0
1979-07-17 12:50:51.090 ,3,0,0.,12.0,0.,12.0,0.,12.0,0.,12.0
1979-07-17 12:51:03.090 ,3,0,0.,12.0,0.,12.0,0.,12.0,0.,12.0
1979-07-17 12:51:15.090 ,4,1,0.,12.0,0.,12.0,0.,12.0,0.,12.0
1979-07-17 12:51:27.090 ,4,1,0.,12.0,0.,12.0,0.,12.0,0.,12.0
1979-07-17 12:51:39.090 ,4,0,0.,12.0,0.,12.0,0.,12.0,0.,12.0
1979-07-17 12:51:51.090 ,4,0,0.,12.0,0.,12.0,0.,12.0,0.,12.0
1979-07-17 12:52:03.090 ,5,1,0.,12.0,0.,12.0,0.,12.0,0.,12.0
1979-07-17 12:52:15.090 ,5,1,0.,12.0,0.,12.0,0.,12.0,0.,12.0
1979-07-17 12:52:27.090 ,5,0,0.,12.0,0.,12.0,0.,12.0,0.,12.0
1979-07-17 12:52:39.090 ,5,0,0.,12.0,0.,12.0,0.,12.0,0.,12.0
1979-07-17 12:52:51.090 ,6,1,0.,12.0,0.,12.0,0.,12.0,0.,12.0
1979-07-17 12:53:03.090 ,6,1,0.,12.0,0.,12.0,0.,12.0,0.,12.0
1979-07-17 12:53:15.090 ,6,0,0.,12.0,0.,12.0,0.,12.0,0.,12.0
1979-07-17 12:53:27.090 ,6,0,0.,12.0,0.,12.0,0.,12.0,0.,12.0
1979-07-17 12:53:39.090 ,7,1,0.,12.0,0.,12.0,0.,12.0,0.,12.0
1979-07-17 12:53:51.090 ,7,1,0.,12.0,0.,12.0,0.,12.0,0.,12.0
1979-07-17 12:54:03.090 ,7,0,0.,12.0,0.,12.0,0.,12.0,0.,12.0
1979-07-17 12:54:15.090 ,7,0,0.,12.0,0.,12.0,0.,12.0,0.,12.0
1979-07-17 12:54:27.090 ,0,0,0.,12.0,0.,12.0,0.,12.0,0.,12.0
1979-07-17 12:54:39.090 ,0,0,0.,12.0,0.,12.0,0.,12.0,0.,12.0
1979-07-17 12:54:51.090 ,0,0,0.,12.0,0.,12.0,0.,12.0,0.,12.0
1979-07-17 12:55:03.090 ,0,0,0.,12.0,0.,12.0,0.,12.0,0.,12.0
1979-07-17 12:55:15.090 ,6,1,0.,12.0,0.,12.0,0.,12.0,0.,12.0
1979-07-17 12:55:27.090 ,6,1,0.,12.0,0.,12.0,0.,12.0,0.,12.0
1979-07-17 12:55:39.090 ,6,0,0.,12.0,0.,12.0,0.,12.0,0.,12.0
1979-07-17 12:55:51.090 ,6,0,0.,12.0,0.,12.0,0.,12.0,0.,12.0
1979-07-17 12:56:03.090 ,5,1,0.,12.0,0.,12.0,0.,12.0,0.,12.0
1979-07-17 12:56:15.090 ,5,1,0.,12.0,0.,12.0,0.,12.0,0.,12.0
1979-07-17 12:56:27.090 ,5,0,0.,12.0,0.,12.0,0.,12.0,0.,12.0
1979-07-17 12:56:39.090 ,5,0,0.,12.0,0.,12.0,0.,12.0,0.,12.0
1979-07-17 12:56:51.090 ,4,1,1.,12.0,0.,12.0,0.,12.0,0.,12.0
1979-07-17 12:57:03.090 ,4,1,0.,12.0,0.,12.0,0.,12.0,0.,12.0
1979-07-17 12:57:15.090 ,4,0,0.,12.0,0.,12.0,0.,12.0,0.,12.0
1979-07-17 12:57:27.090 ,4,0,0.,12.0,0.,12.0,0.,12.0,0.,12.0
1979-07-17 12:57:39.090 ,3,1,0.,12.0,0.,12.0,0.,12.0,0.,12.0
1979-07-17 12:57:51.090 ,3,1,0.,12.0,0.,12.0,0.,12.0,0.,12.0
1979-07-17 12:58:03.090 ,3,0,0.,12.0,0.,12.0,0.,12.0,0.,12.0
1979-07-17 12:58:15.090 ,3,0,0.,12.0,0.,12.0,0.,12.0,0.,12.0
1979-07-17 12:58:27.090 ,2,1,0.,12.0,0.,12.0,0.,12.0,0.,12.0
1979-07-17 12:58:39.090 ,2,1,0.,12.0,0.,12.0,0.,12.0,0.,12.0
1979-07-17 12:58:51.090 ,2,0,0.,12.0,0.,12.0,0.,12.0,0.,12.0
1979-07-17 12:59:03.090 ,2,0,1.,12.0,0.,12.0,0.,12.0,0.,12.0
1979-07-17 12:59:15.090 ,1,1,0.,12.0,0.,12.0,0.,12.0,0.,12.0
1979-07-17 12:59:27.090 ,1,1,0.,12.0,0.,12.0,0.,12.0,0.,12.0
1979-07-17 12:59:39.090 ,1,0,0.,12.0,0.,12.0,0.,12.0,0.,12.0
1979-07-17 12:59:51.090 ,1,0,0.,12.0,0.,12.0,0.,12.0,0.,12.0
1979-07-17 13:00:03.090 ,0,1,0.,12.0,0.,12.0,0.,12.0,0.,12.0
1979-07-17 13:00:15.090 ,0,1,0.,12.0,0.,12.0,0.,12.0,0.,12.0
1979-07-17 13:00:27.090 ,0,0,1.,12.0,0.,12.0,0.,12.0,0.,12.0
1979-07-17 13:00:39.090 ,0,0,0.,12.0,0.,12.0,0.,12.0,0.,12.0
1979-07-17 13:00:51.090 ,0,1,0.,12.0,0.,12.0,0.,12.0,0.,12.0
1979-07-17 13:01:03.090 ,0,1,1.,12.0,0.,12.0,0.,12.0,0.,12.0
1979-07-17 13:01:15.090 ,0,0,0.,12.0,0.,12.0,0.,12.0,0.,12.0
1979-07-17 13:01:27.090 ,0,0,0.,12.0,0.,12.0,0.,12.0,0.,12.0
1979-07-17 13:01:39.090 ,1,1,0.,12.0,0.,12.0,0.,12.0,0.,12.0
1979-07-17 13:01:51.090 ,1,1,0.,12.0,0.,12.0,0.,12.0,0.,12.0
1979-07-17 13:02:03.090 ,1,0,0.,12.0,0.,12.0,0.,12.0,0.,12.0
1979-07-17 13:02:15.090 ,1,0,0.,12.0,0.,12.0,0.,12.0,0.,12.0
1979-07-17 13:02:27.090 ,2,1,0.,12.0,0.,12.0,0.,12.0,0.,12.0
1979-07-17 13:02:39.090 ,2,1,0.,12.0,0.,12.0,0.,12.0,0.,12.0
1979-07-17 13:02:51.090 ,2,0,1.,12.0,0.,12.0,0.,12.0,0.,12.0
1979-07-17 13:03:03.090 ,2,0,0.,12.0,0.,12.0,0.,12.0,0.,12.0
1979-07-17 13:03:15.090 ,3,1,0.,12.0,0.,12.0,0.,12.0,0.,12.0
1979-07-17 13:03:27.090 ,3,1,0.,12.0,0.,12.0,0.,12.0,0.,12.0
1979-07-17 13:03:39.090 ,3,0,0.,12.0,0.,12.0,0.,12.0,0.,12.0
1979-07-17 13:03:51.090 ,3,0,0.,12.0,0.,12.0,0.,12.0,0.,12.0
1979-07-17 13:04:03.090 ,4,1,0.,12.0,0.,12.0,0.,12.0,0.,12.0
1979-07-17 13:04:15.090 ,4,1,0.,12.0,0.,12.0,0.,12.0,0.,12.0
1979-07-17 13:04:27.090 ,4,0,0.,12.0,0.,12.0,0.,12.0,0.,12.0
1979-07-17 13:04:39.090 ,4,0,0.,12.0,0.,12.0,0.,12.0,0.,12.0
1979-07-17 13:05:15.090 ,5,0,0.,12.0,0.,12.0,0.,12.0,0.,12.0
1979-07-17 13:05:27.090 ,5,0,0.,12.0,0.,12.0,0.,12.0,0.,12.0
1979-07-17 13:05:39.090 ,6,1,0.,12.0,0.,12.0,0.,12.0,0.,12.0
1979-07-17 13:05:51.090 ,6,1,0.,12.0,0.,12.0,0.,12.0,0.,12.0
1979-07-17 13:06:03.090 ,6,0,0.,12.0,0.,12.0,0.,12.0,0.,12.0
1979-07-17 13:06:15.090 ,6,0,0.,12.0,0.,12.0,0.,12.0,0.,12.0
1979-07-17 13:06:27.090 ,7,0,0.,12.0,0.,12.0,0.,12.0,0.,12.0
1979-07-17 13:06:39.090 ,7,0,0.,12.0,0.,12.0,0.,12.0,0.,12.0
1979-07-17 13:06:51.090 ,7,0,0.,12.0,0.,12.0,0.,12.0,0.,12.0
1979-07-17 13:07:03.090 ,7,0,0.,12.0,0.,12.0,0.,12.0,0.,12.0
1979-07-17 13:07:15.090 ,4,1,0.,12.0,0.,12.0,0.,12.0,0.,12.0
1979-07-17 13:07:27.090 ,4,1,0.,12.0,0.,12.0,0.,12.0,0.,12.0
1979-07-17 13:07:39.090 ,0,1,0.,12.0,0.,12.0,0.,12.0,0.,12.0
1979-07-17 13:07:51.090 ,0,1,0.,12.0,0.,12.0,0.,12.0,0.,12.0
1979-07-17 13:08:03.090 ,0,0,0.,12.0,0.,12.0,0.,12.0,0.,12.0
1979-07-17 13:08:15.090 ,0,0,0.,12.0,0.,12.0,0.,12.0,0.,12.0
1979-07-17 13:08:27.090 ,7,1,1.,12.0,0.,12.0,0.,12.0,0.,12.0
1979-07-17 13:08:39.090 ,7,1,0.,12.0,0.,12.0,0.,12.0,0.,12.0
1979-07-17 13:08:51.090 ,4,1,0.,12.0,0.,12.0,0.,12.0,0.,12.0
1979-07-17 13:09:03.090 ,4,1,0.,12.0,0.,12.0,0.,12.0,0.,12.0
1979-07-17 13:09:15.090 ,0,1,0.,12.0,0.,12.0,0.,12.0,0.,12.0
1979-07-17 13:09:27.090 ,0,1,0.,12.0,0.,12.0,0.,12.0,0.,12.0
1979-07-17 13:09:39.090 ,3,1,0.,12.0,0.,12.0,0.,12.0,0.,12.0
1979-07-17 13:09:51.090 ,3,1,0.,12.0,0.,12.0,0.,12.0,0.,12.0
1979-07-17 13:10:03.090 ,7,1,0.,12.0,0.,12.0,0.,12.0,0.,12.0
1979-07-17 13:10:15.090 ,7,1,0.,12.0,0.,12.0,0.,12.0,0.,12.0
1979-07-17 13:10:27.090 ,4,1,0.,12.0,0.,12.0,0.,12.0,0.,12.0
1979-07-17 13:10:39.090 ,4,1,0.,12.0,0.,12.0,0.,12.0,0.,12.0
1979-07-17 13:10:51.090 ,0,1,0.,12.0,0.,12.0,0.,12.0,0.,12.0
1979-07-17 13:11:03.090 ,0,1,0.,12.0,0.,12.0,0.,12.0,0.,12.0
1979-07-17 13:11:15.090 ,3,1,0.,12.0,0.,12.0,0.,12.0,0.,12.0
1979-07-17 13:11:27.090 ,3,1,0.,12.0,0.,12.0,0.,12.0,0.,12.0
1979-07-17 13:11:39.090 ,7,1,0.,12.0,0.,12.0,0.,12.0,0.,12.0
1979-07-17 13:11:51.090 ,7,1,0.,12.0,0.,12.0,0.,12.0,0.,12.0
1979-07-17 13:12:03.090 ,4,1,0.,12.0,0.,12.0,0.,12.0,0.,12.0
1979-07-17 13:12:15.090 ,4,1,0.,12.0,0.,12.0,0.,12.0,0.,12.0
1979-07-17 13:12:27.090 ,0,1,0.,12.0,0.,12.0,0.,12.0,0.,12.0
1979-07-17 13:12:39.090 ,0,1,0.,12.0,0.,12.0,0.,12.0,0.,12.0
1979-07-17 13:12:51.090 ,3,1,0.,12.0,0.,12.0,0.,12.0,0.,12.0
1979-07-17 13:13:03.090 ,3,1,0.,12.0,0.,12.0,0.,12.0,0.,12.0
1979-07-17 13:13:15.090 ,7,1,0.,12.0,0.,12.0,0.,12.0,0.,12.0
1979-07-17 13:13:27.090 ,7,1,0.,12.0,0.,12.0,0.,12.0,0.,12.0
1979-07-17 13:13:39.090 ,4,1,1.,12.0,0.,12.0,0.,12.0,0.,12.0
1979-07-17 13:13:51.090 ,4,1,0.,12.0,0.,12.0,0.,12.0,0.,12.0
1979-07-17 13:14:03.090 ,0,1,1.,12.0,0.,12.0,0.,12.0,0.,12.0
1979-07-17 13:14:15.090 ,0,1,0.,12.0,0.,12.0,0.,12.0,0.,12.0
1979-07-17 13:14:27.090 ,3,1,0.,12.0,0.,12.0,0.,12.0,0.,12.0
1979-07-17 13:14:39.090 ,3,1,1.,12.0,0.,12.0,0.,12.0,0.,12.0
1979-07-17 13:14:51.090 ,7,1,0.,12.0,0.,12.0,0.,12.0,0.,12.0
1979-07-17 13:15:03.090 ,7,1,1.,12.0,0.,12.0,0.,12.0,0.,12.0
1979-07-17 13:15:15.090 ,4,1,0.,12.0,0.,12.0,0.,12.0,0.,12.0
1979-07-17 13:15:27.090 ,4,1,0.,12.0,0.,12.0,0.,12.0,0.,12.0
1979-07-17 13:15:39.090 ,0,1,1.,12.0,0.,12.0,0.,12.0,0.,12.0
1979-07-17 13:15:51.090 ,0,1,0.,12.0,0.,12.0,0.,12.0,0.,12.0
1979-07-17 13:16:03.090 ,3,1,0.,12.0,0.,12.0,0.,12.0,0.,12.0
1979-07-17 13:16:15.090 ,3,1,0.,12.0,0.,12.0,0.,12.0,0.,12.0
1979-07-17 13:16:27.090 ,7,1,1.,12.0,0.,12.0,0.,12.0,0.,12.0
1979-07-17 13:16:39.090 ,7,1,0.,12.0,0.,12.0,0.,12.0,0.,12.0
1979-07-17 13:16:51.090 ,4,1,0.,12.0,0.,12.0,0.,12.0,0.,12.0
1979-07-17 13:17:03.090 ,4,1,0.,12.0,0.,12.0,0.,12.0,0.,12.0
1979-07-17 13:17:15.090 ,0,1,0.,12.0,0.,12.0,0.,12.0,0.,12.0
1979-07-17 13:17:27.090 ,0,1,0.,12.0,0.,12.0,0.,12.0,0.,12.0